Eielson Air Force Base, AK

11:21 AM AKDT on September 26, 2016 (GMT -0800)
Eielson Air Force Base

Weather History for PAEI - January, 2014

Change the Weather History Date:

Tuesday, January 14, 2014

  Actual Average Record
Temperature  
Mean Temperature -3 °F -  
Max Temperature 5 °F -3 °F 48 °F (2009)
Min Temperature -11 °F -19 °F -51 °F (1951)
Degree Days  
Heating Degree Days 68    
Moisture  
Dew Point -8 °F    
Average Humidity 81    
Maximum Humidity 85    
Minimum Humidity 77    
Precipitation  
Precipitation 0.00 in - - ()
Sea Level Pressure  
Sea Level Pressure 29.20 in    
Wind  
Wind Speed 2 mph (South)    
Max Wind Speed 8 mph    
Max Gust Speed -    
Visibility 10 miles    
Events Snow    
Averages and records for this station are not official NWS values.
T = Trace of Precipitation, MM = Missing Value Source: NWS Daily Summary

Daily Weather History Graph

Daily Weather History Graph

Search for Another Location

Airport or City:

Trip Planner

Search our weather history database for the weather conditions in past years. The results will help you decide how hot, cold, wet, or windy it might be!

Date:

Astronomy

Jan. 14, 2014 Rise Set
Actual Time 10:23 AM AKST 3:32 PM AKST
Civil Twilight 9:13 AM AKST 4:42 PM AKST
Nautical Twilight 8:07 AM AKST 5:48 PM AKST
Astronomical Twilight 7:08 AM AKST 6:47 PM AKST
Moon 3:04 PM AKST (1/14) 8:48 AM AKST (1/14)
Length of Visible Light 7h 29m
Length of Day
5h 08m
Waxing Gibbous, 98% of the Moon is Illuminated
Jan 14
Waxing Gibbous
Jan 15
Full
Jan 23
Last Quarter
Jan 30
New
Feb 6
First Quarter

Hourly Weather History & Observations

Time (AKST) Temp. Windchill Dew Point Humidity Pressure Visibility Wind Dir Wind Speed Gust Speed Precip Events Conditions
12:58 AM -9.4 °F - -14.8 °F 77% 29.33 in 10.0 mi South 2.3 mph - N/A   Clear
1:58 AM -7.4 °F - -12.5 °F 79% 29.27 in 10.0 mi Calm Calm - N/A   Partly Cloudy
2:58 AM -5.4 °F - -10.3 °F 80% 29.24 in 10.0 mi Calm Calm - N/A   Clear
3:58 AM -3.5 °F - -8.1 °F 80% 29.19 in 10.0 mi Calm Calm - N/A   Overcast
4:58 AM -3.6 °F - -8.3 °F 80% 29.15 in 10.0 mi Calm Calm - N/A   Clear
5:58 AM -5.4 °F - -10.3 °F 80% 29.11 in 10.0 mi Variable 1.2 mph - N/A   Scattered Clouds
6:58 AM -6.9 °F -19.7 °F -11.9 °F 79% 29.06 in 10.0 mi Variable 5.8 mph - N/A   Scattered Clouds
7:58 AM -4.2 °F -12.6 °F -8.9 °F 80% 29.03 in 10.0 mi Variable 3.5 mph - N/A   Clear
8:58 AM -2.2 °F - -6.7 °F 81% 29.01 in 10.0 mi Calm Calm - N/A   Mostly Cloudy
9:43 AM -0.4 °F - -4.0 °F 85% 28.95 in 10.0 mi Calm Calm - N/A   Overcast
9:58 AM 0.1 °F - -4.2 °F 82% 29.00 in 10.0 mi Calm Calm - N/A   Overcast
10:13 AM 1.4 °F - -2.2 °F 85% 28.95 in 10.0 mi Variable 2.3 mph - N/A   Scattered Clouds
10:58 AM 2.8 °F -6.6 °F -1.1 °F 84% 29.00 in 10.0 mi Variable 4.6 mph - N/A   Clear
11:43 AM 3.2 °F -4.2 °F -0.4 °F 85% 28.95 in 10.0 mi NW 3.5 mph - N/A   Overcast
11:58 AM 3.6 °F -3.8 °F -0.4 °F 84% 29.00 in 10.0 mi Variable 3.5 mph - N/A   Overcast
12:58 PM 3.6 °F - -0.6 °F 83% 29.01 in 10.0 mi North 2.3 mph - N/A   Mostly Cloudy
1:13 PM 5.0 °F - 1.4 °F 85% 28.97 in 10.0 mi Calm Calm - N/A   Mostly Cloudy
1:58 PM 3.6 °F - -0.6 °F 83% 29.03 in 10.0 mi Variable 1.2 mph - N/A   Clear
2:58 PM 2.3 °F -11.4 °F -1.8 °F 83% 29.08 in 10.0 mi WSW 8.1 mph - N/A   Clear
3:58 PM -4.9 °F -18.8 °F -9.9 °F 79% 29.14 in - Variable 6.9 mph - N/A   Mostly Cloudy
4:05 PM -4.9 °F -18.8 °F -9.9 °F 79% 29.14 in 10.0 mi Variable 6.9 mph - N/A   Mostly Cloudy
4:58 PM -7.1 °F - -11.9 °F 79% 29.18 in 10.0 mi Variable 1.2 mph - N/A   Mostly Cloudy
5:58 PM -8.1 °F - -13.2 °F 79% 29.23 in 10.0 mi Calm Calm - N/A   Overcast
6:58 PM -7.6 °F -20.6 °F -12.6 °F 79% 29.30 in 10.0 mi SSE 5.8 mph - N/A   Overcast
7:58 PM -7.8 °F -19.0 °F -12.8 °F 79% 29.37 in 10.0 mi Variable 4.6 mph - N/A   Overcast
9:09 PM -11.2 °F -23.0 °F -16.6 °F 77% 29.46 in 10.0 mi Variable 4.6 mph - N/A   Overcast
9:58 PM -9.2 °F - -14.3 °F 79% 29.50 in 8.0 mi SE 2.3 mph - N/A   Overcast
10:41 PM -7.6 °F -18.8 °F -13.0 °F 77% 29.48 in 10.0 mi SSE 4.6 mph - N/A   Overcast
10:58 PM -7.4 °F -18.6 °F -12.3 °F 79% 29.56 in 9.0 mi Variable 4.6 mph - 0.00 in Snow Light Snow
11:13 PM -7.6 °F -18.8 °F -11.2 °F 84% 29.51 in 7.0 mi Variable 4.6 mph - N/A Snow Light Snow
11:28 PM -5.8 °F - -11.2 °F 77% 29.52 in 8.0 mi Variable 2.3 mph - N/A Snow Light Snow
11:58 PM -5.4 °F - -10.3 °F 80% 29.60 in 9.0 mi Variable 2.3 mph - 0.00 in Snow Light Snow